Orbital Elements at Epoch 2459000.5 (2020-May-31.0) TDB
Reference: JPL 23 (heliocentric ecliptic J2000)
Element | Value | Uncertainty (1-sigma) | Units |
e | .2157527614505648 | 1.1674e-07 | |
a | 2.55340251493064 | 1.4164e-08 | au |
q | 2.002498871239537 | 3.0614e-07 | au |
i | 7.46482456826343 | 4.0668e-06 | deg |
node | 42.81987704352944 | 4.9361e-05 | deg |
peri | 82.50854532765437 | 5.0576e-05 | deg |
M | 11.11226680309197 | 1.0411e-05 | deg |
tp | 2458954.497915755842 (2020-Apr-14.99791576) | 4.2943e-05 | TDB |
period | 1490.312518710311 4.08 | 1.24e-05 3.395e-08 | d yr |
n | .2415600724548281 | 2.0099e-09 | deg/d |
Q | 3.104306158621742 | 1.722e-08 | au |
|
| | Orbit Determination Parameters
Additional Information
|